Time,TemperatureF,DewpointF,PressureIn,WindDirection,WindDirectionDegrees,WindSpeedMPH,WindSpeedGustMPH,Humidity,HourlyPrecipIn,Conditions,Clouds,dailyrainin,SoftwareType,DateUTC
2013-02-26 00:02:00,33.6,11.9,29.12,ESE,121,3.1,28.4,40,0.00,,SKC,0.16,VWS V14.01,2013-02-26 06:02:00,
2013-02-26 00:07:00,33.6,11.9,29.12,SE,130,4.0,28.4,40,0.00,,SKC,0.16,VWS V14.01,2013-02-26 06:07:00,
2013-02-26 00:12:00,33.6,11.9,29.12,East,91,4.0,28.4,40,0.00,,SKC,0.16,VWS V14.01,2013-02-26 06:12:00,
2013-02-26 00:17:00,33.8,12.1,29.12,East,100,2.7,28.4,40,0.00,,SKC,0.16,VWS V14.01,2013-02-26 06:17:00,
2013-02-26 00:22:00,33.8,12.1,29.12,SSE,155,3.1,28.4,40,0.00,,SKC,0.16,VWS V14.01,2013-02-26 06:22:00,
2013-02-26 00:27:00,33.8,12.1,29.09,East,100,2.2,28.4,40,0.00,,SKC,0.16,VWS V14.01,2013-02-26 06:27:00,
2013-02-26 00:32:00,33.8,12.1,29.09,East,100,2.7,28.4,40,0.00,,SKC,0.16,VWS V14.01,2013-02-26 06:32:00,
2013-02-26 00:37:00,33.8,12.1,29.09,SSE,161,2.7,28.4,40,0.00,,SKC,0.16,VWS V14.01,2013-02-26 06:37:00,
2013-02-26 00:42:00,33.8,11.5,29.09,East,100,2.7,28.4,39,0.00,,SKC,0.16,VWS V14.01,2013-02-26 06:42:00,
2013-02-26 00:47:00,33.6,11.9,29.09,SSE,152,5.8,28.4,40,0.00,,SKC,0.16,VWS V14.01,2013-02-26 06:47:00,
2013-02-26 00:52:00,33.6,11.9,29.09,ESE,117,3.6,28.4,40,0.00,,SKC,0.16,VWS V14.01,2013-02-26 06:52:00,
2013-02-26 00:57:00,33.6,11.3,29.06,SE,133,2.7,28.4,39,0.00,,SKC,0.16,VWS V14.01,2013-02-26 06:57:00,
2013-02-26 01:02:00,33.6,11.3,29.06,ESE,116,3.1,28.4,39,0.00,,SKC,0.16,VWS V14.01,2013-02-26 07:02:00,
2013-02-26 01:07:00,33.8,10.9,29.06,East,80,4.0,28.4,38,0.00,,SKC,0.16,VWS V14.01,2013-02-26 07:07:00,
2013-02-26 01:12:00,33.8,10.3,29.06,ESE,106,5.8,28.4,37,0.00,,SKC,0.16,VWS V14.01,2013-02-26 07:12:00,
2013-02-26 01:17:00,33.8,10.3,29.06,SSE,158,3.6,28.4,37,0.00,,SKC,0.16,VWS V14.01,2013-02-26 07:17:00,
2013-02-26 01:22:00,33.8,9.7,29.06,ESE,103,4.9,28.4,36,0.00,,SKC,0.16,VWS V14.01,2013-02-26 07:22:00,
2013-02-26 01:27:00,34.0,9.9,29.09,ESE,117,3.1,28.4,36,0.00,,SKC,0.16,VWS V14.01,2013-02-26 07:27:00,
2013-02-26 01:32:00,34.0,9.2,29.09,SE,128,3.6,28.4,35,0.00,,SKC,0.16,VWS V14.01,2013-02-26 07:32:00,
2013-02-26 01:37:00,34.0,9.2,29.09,SE,142,5.8,28.4,35,0.00,,SKC,0.16,VWS V14.01,2013-02-26 07:37:00,
2013-02-26 01:42:00,34.0,9.2,29.06,SE,141,2.7,28.4,35,0.00,,SKC,0.16,VWS V14.01,2013-02-26 07:42:00,
2013-02-26 01:47:00,34.0,8.6,29.06,SE,125,2.2,28.4,34,0.00,,SKC,0.16,VWS V14.01,2013-02-26 07:47:00,
2013-02-26 01:52:00,34.0,8.6,29.06,SSE,167,5.8,28.4,34,0.00,,SKC,0.16,VWS V14.01,2013-02-26 07:52:00,
2013-02-26 01:57:00,34.0,8.6,29.03,SE,141,3.1,28.4,34,0.00,,SKC,0.16,VWS V14.01,2013-02-26 07:57:00,
2013-02-26 02:02:00,34.0,7.9,29.03,SSE,147,7.2,28.4,33,0.00,,SKC,0.16,VWS V14.01,2013-02-26 08:02:00,
2013-02-26 02:07:00,34.0,7.9,29.03,SE,127,4.0,28.4,33,0.00,,SKC,0.16,VWS V14.01,2013-02-26 08:07:00,
2013-02-26 02:12:00,34.0,7.9,29.06,SSE,158,2.7,28.4,33,0.00,,SKC,0.16,VWS V14.01,2013-02-26 08:12:00,
2013-02-26 02:17:00,33.8,7.8,29.06,ENE,77,3.1,28.4,33,0.00,,SKC,0.16,VWS V14.01,2013-02-26 08:17:00,
2013-02-26 02:22:00,33.8,7.8,29.06,ESE,117,3.1,28.4,33,0.00,,SKC,0.16,VWS V14.01,2013-02-26 08:22:00,
2013-02-26 02:27:00,33.8,7.8,29.03,ESE,111,3.6,28.4,33,0.00,,SKC,0.16,VWS V14.01,2013-02-26 08:27:00,
2013-02-26 02:32:00,33.8,7.8,29.03,ESE,103,7.6,28.4,33,0.00,,SKC,0.16,VWS V14.01,2013-02-26 08:32:00,
2013-02-26 02:37:00,33.8,7.8,29.03,ESE,118,4.0,28.4,33,0.00,,SKC,0.16,VWS V14.01,2013-02-26 08:37:00,
2013-02-26 02:42:00,33.8,7.8,29.03,SE,139,2.7,28.4,33,0.00,,SKC,0.16,VWS V14.01,2013-02-26 08:42:00,
2013-02-26 02:47:00,33.8,7.1,29.03,SE,128,4.0,28.4,32,0.00,,SKC,0.16,VWS V14.01,2013-02-26 08:47:00,
2013-02-26 02:52:00,33.8,7.1,29.03,SSE,167,3.6,28.4,32,0.00,,SKC,0.16,VWS V14.01,2013-02-26 08:52:00,
2013-02-26 02:57:00,33.8,7.1,28.97,SE,134,2.7,28.4,32,0.00,,SKC,0.16,VWS V14.01,2013-02-26 08:57:00,
2013-02-26 03:02:00,33.8,7.1,28.97,SE,129,3.1,28.4,32,0.00,,SKC,0.16,VWS V14.01,2013-02-26 09:02:00,
2013-02-26 03:07:00,33.8,7.1,28.97,ESE,114,3.6,28.4,32,0.00,,SKC,0.16,VWS V14.01,2013-02-26 09:07:00,
2013-02-26 03:12:00,33.8,7.1,28.97,SSE,155,3.6,28.4,32,0.00,,SKC,0.16,VWS V14.01,2013-02-26 09:12:00,
2013-02-26 03:17:00,33.8,7.1,28.97,SSE,159,3.1,28.4,32,0.00,,SKC,0.16,VWS V14.01,2013-02-26 09:17:00,
2013-02-26 03:22:00,33.8,7.1,28.97,ESE,119,2.7,28.4,32,0.00,,SKC,0.16,VWS V14.01,2013-02-26 09:22:00,
2013-02-26 03:27:00,33.8,6.4,28.97,SSE,158,2.7,28.4,31,0.00,,SKC,0.16,VWS V14.01,2013-02-26 09:27:00,
2013-02-26 03:32:00,34.0,6.5,28.97,SE,143,5.4,28.4,31,0.00,,SKC,0.16,VWS V14.01,2013-02-26 09:32:00,
2013-02-26 03:37:00,34.0,6.5,28.97,SE,146,0.0,28.4,31,0.00,,SKC,0.16,VWS V14.01,2013-02-26 09:37:00,
2013-02-26 03:42:00,34.0,6.5,29.00,SE,131,4.0,28.4,31,0.00,,SKC,0.16,VWS V14.01,2013-02-26 09:42:00,
2013-02-26 03:47:00,34.0,6.5,29.00,ESE,119,4.5,28.4,31,0.00,,SKC,0.16,VWS V14.01,2013-02-26 09:47:00,
2013-02-26 03:52:00,34.2,6.7,29.00,SSE,162,3.6,28.4,31,0.00,,SKC,0.16,VWS V14.01,2013-02-26 09:52:00,
2013-02-26 03:57:00,34.2,6.7,29.00,SE,143,3.1,28.4,31,0.00,,SKC,0.16,VWS V14.01,2013-02-26 09:57:00,
2013-02-26 04:02:00,34.2,6.7,29.00,SE,124,4.0,28.4,31,0.00,,SKC,0.16,VWS V14.01,2013-02-26 10:02:00,
2013-02-26 04:07:00,34.2,6.7,29.00,SE,129,3.6,28.4,31,0.00,,SKC,0.16,VWS V14.01,2013-02-26 10:07:00,
2013-02-26 04:12:00,34.2,6.7,29.00,SSE,160,0.0,28.4,31,0.00,,SKC,0.16,VWS V14.01,2013-02-26 10:12:00,
2013-02-26 04:17:00,34.2,6.7,29.00,East,96,5.4,28.4,31,0.00,,SKC,0.16,VWS V14.01,2013-02-26 10:17:00,
2013-02-26 04:22:00,34.2,6.7,29.00,ESE,113,2.7,28.4,31,0.00,,SKC,0.16,VWS V14.01,2013-02-26 10:22:00,
2013-02-26 04:27:00,34.0,6.5,28.97,East,100,2.2,28.4,31,0.00,,SKC,0.16,VWS V14.01,2013-02-26 10:27:00,
2013-02-26 04:32:00,34.0,6.5,28.97,East,79,3.6,28.4,31,0.00,,SKC,0.16,VWS V14.01,2013-02-26 10:32:00,
2013-02-26 04:37:00,34.0,6.5,28.97,ESE,103,4.9,28.4,31,0.00,,SKC,0.16,VWS V14.01,2013-02-26 10:37:00,
2013-02-26 04:42:00,34.0,7.2,28.97,NNE,14,11.0,28.4,32,0.00,,SKC,0.16,VWS V14.01,2013-02-26 10:42:00,
2013-02-26 04:47:00,34.0,7.2,28.97,East,86,3.6,28.4,32,0.00,,SKC,0.16,VWS V14.01,2013-02-26 10:47:00,
2013-02-26 04:52:00,34.0,6.5,28.97,SE,142,2.7,28.4,31,0.00,,SKC,0.16,VWS V14.01,2013-02-26 10:52:00,
2013-02-26 04:57:00,34.0,6.5,28.94,ESE,105,6.3,28.4,31,0.00,,SKC,0.16,VWS V14.01,2013-02-26 10:57:00,
2013-02-26 05:02:00,34.0,6.5,28.94,ESE,106,5.4,28.4,31,0.00,,SKC,0.16,VWS V14.01,2013-02-26 11:02:00,
2013-02-26 05:07:00,34.0,6.5,28.94,East,96,2.7,28.4,31,0.00,,SKC,0.16,VWS V14.01,2013-02-26 11:07:00,
2013-02-26 05:12:00,34.0,6.5,28.91,ESE,113,4.0,28.4,31,0.00,,SKC,0.16,VWS V14.01,2013-02-26 11:12:00,
2013-02-26 05:17:00,34.0,6.5,28.91,SE,125,6.3,28.4,31,0.00,,SKC,0.16,VWS V14.01,2013-02-26 11:17:00,
2013-02-26 05:22:00,34.0,6.5,28.91,ENE,78,7.6,28.4,31,0.00,,SKC,0.16,VWS V14.01,2013-02-26 11:22:00,
2013-02-26 05:27:00,34.0,6.5,28.91,SE,128,6.3,28.4,31,0.00,,SKC,0.16,VWS V14.01,2013-02-26 11:27:00,
2013-02-26 05:32:00,34.0,6.5,28.91,SE,124,2.7,28.4,31,0.00,,SKC,0.16,VWS V14.01,2013-02-26 11:32:00,
2013-02-26 05:37:00,34.0,6.5,28.91,East,96,4.0,28.4,31,0.00,,SKC,0.16,VWS V14.01,2013-02-26 11:37:00,
2013-02-26 05:42:00,34.0,6.5,28.91,ESE,115,5.8,28.4,31,0.00,,SKC,0.16,VWS V14.01,2013-02-26 11:42:00,
2013-02-26 05:47:00,34.0,6.5,28.91,SE,128,8.1,28.4,31,0.00,,SKC,0.16,VWS V14.01,2013-02-26 11:47:00,
2013-02-26 05:52:00,34.2,6.7,28.91,SE,141,3.6,28.4,31,0.00,,SKC,0.16,VWS V14.01,2013-02-26 11:52:00,
2013-02-26 05:57:00,34.2,6.7,28.91,SSE,167,5.4,28.4,31,0.00,,SKC,0.16,VWS V14.01,2013-02-26 11:57:00,
2013-02-26 06:02:00,34.2,6.7,28.91,SE,133,4.0,28.4,31,0.00,,SKC,0.16,VWS V14.01,2013-02-26 12:02:00,
2013-02-26 06:07:00,34.3,6.9,28.91,SSE,148,6.3,28.4,31,0.00,,SKC,0.16,VWS V14.01,2013-02-26 12:07:00,
2013-02-26 06:12:00,34.3,6.9,28.88,ESE,114,9.6,28.4,31,0.00,,SKC,0.16,VWS V14.01,2013-02-26 12:12:00,
2013-02-26 06:17:00,34.3,6.9,28.88,SE,141,6.3,28.4,31,0.00,,SKC,0.16,VWS V14.01,2013-02-26 12:17:00,
2013-02-26 06:22:00,34.5,7.0,28.88,SSE,147,7.6,28.4,31,0.00,,SKC,0.16,VWS V14.01,2013-02-26 12:22:00,
2013-02-26 06:27:00,34.5,6.3,28.88,ESE,106,3.1,28.4,30,0.00,,SKC,0.16,VWS V14.01,2013-02-26 12:27:00,
2013-02-26 06:32:00,34.5,7.0,28.88,SE,134,8.7,28.4,31,0.00,,SKC,0.16,VWS V14.01,2013-02-26 12:32:00,
2013-02-26 06:37:00,34.5,6.3,28.88,East,82,7.2,28.4,30,0.00,,SKC,0.16,VWS V14.01,2013-02-26 12:37:00,
2013-02-26 06:42:00,34.7,6.4,28.88,SE,127,3.6,28.4,30,0.00,,SKC,0.16,VWS V14.01,2013-02-26 12:42:00,
2013-02-26 06:47:00,34.9,6.6,28.88,ESE,116,8.1,28.4,30,0.00,,SKC,0.16,VWS V14.01,2013-02-26 12:47:00,
2013-02-26 06:52:00,35.1,6.8,28.88,South,181,3.1,28.4,30,0.00,,SKC,0.16,VWS V14.01,2013-02-26 12:52:00,
2013-02-26 06:57:00,35.1,6.8,28.91,SSE,147,10.5,28.4,30,0.00,,SKC,0.16,VWS V14.01,2013-02-26 12:57:00,
2013-02-26 07:02:00,35.2,6.9,28.91,SE,140,6.3,28.4,30,0.00,,SKC,0.16,VWS V14.01,2013-02-26 13:02:00,
2013-02-26 07:07:00,35.4,7.1,28.91,ESE,106,4.5,28.4,30,0.00,,SKC,0.16,VWS V14.01,2013-02-26 13:07:00,
2013-02-26 07:12:00,35.4,7.1,28.88,SSW,195,3.1,28.4,30,0.00,,SKC,0.16,VWS V14.01,2013-02-26 13:12:00,
2013-02-26 07:17:00,35.4,7.1,28.88,ESE,121,7.6,28.4,30,0.00,,SKC,0.16,VWS V14.01,2013-02-26 13:17:00,
2013-02-26 07:22:00,35.6,6.5,28.88,SSE,153,4.9,28.4,29,0.00,,SKC,0.16,VWS V14.01,2013-02-26 13:22:00,
2013-02-26 07:27:00,35.6,6.5,28.91,SE,142,6.3,28.4,29,0.00,,SKC,0.16,VWS V14.01,2013-02-26 13:27:00,
2013-02-26 07:32:00,35.8,6.7,28.91,SE,136,4.0,28.4,29,0.00,,SKC,0.16,VWS V14.01,2013-02-26 13:32:00,
2013-02-26 07:37:00,35.8,6.7,28.91,SSW,195,3.6,28.4,29,0.00,,SKC,0.16,VWS V14.01,2013-02-26 13:37:00,
2013-02-26 07:42:00,35.8,6.7,28.88,SE,138,4.9,28.4,29,0.00,,SKC,0.16,VWS V14.01,2013-02-26 13:42:00,
2013-02-26 07:47:00,36.0,6.8,28.88,SSE,158,3.1,28.4,29,0.00,,SKC,0.16,VWS V14.01,2013-02-26 13:47:00,
2013-02-26 07:52:00,36.0,5.2,28.88,ESE,115,5.8,28.4,27,0.00,,SKC,0.16,VWS V14.01,2013-02-26 13:52:00,
2013-02-26 07:57:00,36.1,5.4,28.85,SSE,155,4.0,28.4,27,0.00,,SKC,0.16,VWS V14.01,2013-02-26 13:57:00,
2013-02-26 08:02:00,36.1,5.4,28.85,SE,129,3.6,28.4,27,0.00,,SKC,0.16,VWS V14.01,2013-02-26 14:02:00,
2013-02-26 08:07:00,36.1,5.4,28.85,South,185,6.3,28.4,27,0.00,,SKC,0.16,VWS V14.01,2013-02-26 14:07:00,
2013-02-26 08:12:00,36.3,5.6,28.85,SE,142,8.1,28.4,27,0.00,,SKC,0.16,VWS V14.01,2013-02-26 14:12:00,
2013-02-26 08:17:00,36.3,5.6,28.85,ESE,116,5.4,28.4,27,0.00,,SKC,0.16,VWS V14.01,2013-02-26 14:17:00,
2013-02-26 08:22:00,36.5,5.7,28.85,SSE,166,11.0,28.4,27,0.00,,SKC,0.16,VWS V14.01,2013-02-26 14:22:00,
2013-02-26 08:27:00,36.7,5.9,28.85,SE,135,3.1,28.4,27,0.00,,SKC,0.16,VWS V14.01,2013-02-26 14:27:00,
2013-02-26 08:32:00,36.7,5.9,28.85,ESE,110,9.6,28.4,27,0.00,,SKC,0.16,VWS V14.01,2013-02-26 14:32:00,
2013-02-26 08:37:00,36.7,5.9,28.85,ENE,73,3.6,28.4,27,0.00,,SKC,0.16,VWS V14.01,2013-02-26 14:37:00,
2013-02-26 08:42:00,36.7,5.9,28.82,SSE,157,4.9,28.4,27,0.00,,SKC,0.16,VWS V14.01,2013-02-26 14:42:00,
2013-02-26 08:47:00,36.7,5.9,28.82,East,96,4.0,28.4,27,0.00,,SKC,0.16,VWS V14.01,2013-02-26 14:47:00,
2013-02-26 08:52:00,36.7,5.9,28.82,SE,133,10.5,28.4,27,0.00,,SKC,0.16,VWS V14.01,2013-02-26 14:52:00,
2013-02-26 08:57:00,36.7,5.9,28.79,SE,129,5.8,28.4,27,0.00,,SKC,0.16,VWS V14.01,2013-02-26 14:57:00,
2013-02-26 09:02:00,36.9,6.0,28.79,ESE,109,4.0,28.4,27,0.00,,SKC,0.16,VWS V14.01,2013-02-26 15:02:00,
2013-02-26 09:07:00,36.9,6.0,28.79,SSE,153,7.6,28.4,27,0.00,,SKC,0.16,VWS V14.01,2013-02-26 15:07:00,
2013-02-26 09:12:00,36.7,8.2,28.76,SE,133,5.4,28.4,30,0.00,,SKC,0.16,VWS V14.01,2013-02-26 15:12:00,
2013-02-26 09:17:00,36.1,8.4,28.76,ESE,115,5.4,28.4,31,0.00,,SKC,0.16,VWS V14.01,2013-02-26 15:17:00,
2013-02-26 09:22:00,36.0,9.0,28.76,ESE,103,8.1,28.4,32,0.00,,SKC,0.16,VWS V14.01,2013-02-26 15:22:00,
2013-02-26 09:27:00,35.8,9.5,28.76,ESE,120,4.0,28.4,33,0.00,,SKC,0.16,VWS V14.01,2013-02-26 15:27:00,
2013-02-26 09:32:00,35.6,10.7,28.76,SE,125,3.1,28.4,35,0.00,,SKC,0.16,VWS V14.01,2013-02-26 15:32:00,
2013-02-26 09:37:00,35.4,10.5,28.76,SE,136,8.7,28.4,35,0.00,,SKC,0.16,VWS V14.01,2013-02-26 15:37:00,
2013-02-26 09:42:00,35.4,12.4,28.76,SE,138,11.9,28.4,38,0.00,,SKC,0.16,VWS V14.01,2013-02-26 15:42:00,
2013-02-26 09:47:00,35.4,11.8,28.76,SE,133,4.0,28.4,37,0.00,,SKC,0.16,VWS V14.01,2013-02-26 15:47:00,
2013-02-26 09:52:00,35.4,13.5,28.76,SSE,147,4.0,28.4,40,0.00,,SKC,0.16,VWS V14.01,2013-02-26 15:52:00,
2013-02-26 09:57:00,35.2,13.4,28.73,ESE,110,8.3,28.4,40,0.00,,SKC,0.16,VWS V14.01,2013-02-26 15:57:00,
2013-02-26 10:02:00,35.2,13.4,28.73,NNW,347,4.0,28.4,40,0.00,,SKC,0.16,VWS V14.01,2013-02-26 16:02:00,
2013-02-26 10:07:00,35.2,13.9,28.73,SW,235,5.8,28.4,41,0.00,,SKC,0.16,VWS V14.01,2013-02-26 16:07:00,
2013-02-26 10:12:00,35.1,14.3,28.73,East,96,3.1,28.4,42,0.00,,SKC,0.20,VWS V14.01,2013-02-26 16:12:00,
2013-02-26 10:17:00,35.2,14.5,28.73,ESE,118,4.0,28.4,42,0.00,,SKC,0.20,VWS V14.01,2013-02-26 16:17:00,
2013-02-26 10:22:00,35.2,15.0,28.73,ESE,113,2.7,28.4,43,0.00,,SKC,0.20,VWS V14.01,2013-02-26 16:22:00,
2013-02-26 10:27:00,35.4,15.7,28.73,SSE,156,5.4,28.4,44,0.00,,SKC,0.20,VWS V14.01,2013-02-26 16:27:00,
2013-02-26 10:32:00,35.2,15.0,28.73,SE,136,4.0,28.4,43,0.00,,SKC,0.20,VWS V14.01,2013-02-26 16:32:00,
2013-02-26 10:37:00,35.2,15.5,28.73,SE,139,3.6,28.4,44,0.00,,SKC,0.20,VWS V14.01,2013-02-26 16:37:00,
2013-02-26 10:42:00,35.2,15.5,28.70,SSE,166,5.8,28.4,44,0.00,,SKC,0.20,VWS V14.01,2013-02-26 16:42:00,
2013-02-26 10:47:00,35.2,16.0,28.70,ESE,114,4.0,28.4,45,0.00,,SKC,0.20,VWS V14.01,2013-02-26 16:47:00,
2013-02-26 10:52:00,35.2,16.0,28.70,SE,134,8.7,28.4,45,0.00,,SKC,0.20,VWS V14.01,2013-02-26 16:52:00,
2013-02-26 10:57:00,35.4,16.2,28.70,East,88,8.3,28.4,45,0.00,,SKC,0.20,VWS V14.01,2013-02-26 16:57:00,
2013-02-26 11:02:00,35.6,17.9,28.70,ESE,105,8.1,28.4,48,0.00,,SKC,0.20,VWS V14.01,2013-02-26 17:02:00,
2013-02-26 11:07:00,35.4,17.7,28.70,SE,143,2.7,28.4,48,0.00,,SKC,0.24,VWS V14.01,2013-02-26 17:07:00,
2013-02-26 11:12:00,35.4,18.2,28.73,East,100,0.0,28.4,49,0.00,,SKC,0.24,VWS V14.01,2013-02-26 17:12:00,
2013-02-26 11:17:00,35.2,18.0,28.73,South,173,2.2,28.4,49,0.00,,SKC,0.24,VWS V14.01,2013-02-26 17:17:00,
2013-02-26 11:22:00,35.1,18.3,28.73,SE,136,6.3,28.4,50,0.00,,SKC,0.24,VWS V14.01,2013-02-26 17:22:00,
2013-02-26 11:27:00,35.1,18.8,28.73,South,176,3.1,28.4,51,0.00,,SKC,0.24,VWS V14.01,2013-02-26 17:27:00,
2013-02-26 11:32:00,34.9,19.5,28.73,SE,129,5.4,28.4,53,0.00,,SKC,0.24,VWS V14.01,2013-02-26 17:32:00,
2013-02-26 11:37:00,34.9,19.9,28.73,South,177,0.0,28.4,54,0.00,,SKC,0.28,VWS V14.01,2013-02-26 17:37:00,
2013-02-26 11:42:00,34.9,20.4,28.73,South,171,0.0,28.4,55,0.00,,SKC,0.28,VWS V14.01,2013-02-26 17:42:00,
2013-02-26 11:47:00,35.1,21.0,28.73,SE,137,2.7,28.4,56,0.00,,SKC,0.28,VWS V14.01,2013-02-26 17:47:00,
2013-02-26 11:52:00,35.1,21.4,28.73,SE,139,3.1,28.4,57,0.00,,SKC,0.31,VWS V14.01,2013-02-26 17:52:00,
2013-02-26 11:57:00,35.1,21.8,28.70,East,91,3.6,28.4,58,0.00,,SKC,0.31,VWS V14.01,2013-02-26 17:57:00,
2013-02-26 12:02:00,34.9,21.6,28.70,East,79,2.7,28.4,58,0.00,,SKC,0.31,VWS V14.01,2013-02-26 18:02:00,
2013-02-26 12:07:00,34.9,22.0,28.70,SE,129,2.7,28.4,59,0.00,,SKC,0.31,VWS V14.01,2013-02-26 18:07:00,
2013-02-26 12:12:00,34.9,22.4,28.67,ESE,103,4.0,28.4,60,0.00,,SKC,0.35,VWS V14.01,2013-02-26 18:12:00,
2013-02-26 12:17:00,34.9,22.8,28.67,East,88,4.0,28.4,61,0.00,,SKC,0.35,VWS V14.01,2013-02-26 18:17:00,
2013-02-26 12:22:00,34.9,22.8,28.67,ESE,105,5.4,28.4,61,0.00,,SKC,0.35,VWS V14.01,2013-02-26 18:22:00,
2013-02-26 12:27:00,34.9,23.2,28.70,ENE,69,5.4,28.4,62,0.00,,SKC,0.35,VWS V14.01,2013-02-26 18:27:00,
2013-02-26 12:32:00,34.9,23.2,28.70,East,92,6.3,28.4,62,0.00,,SKC,0.35,VWS V14.01,2013-02-26 18:32:00,
2013-02-26 12:37:00,34.9,23.2,28.70,SE,125,6.3,28.4,62,0.00,,SKC,0.35,VWS V14.01,2013-02-26 18:37:00,
2013-02-26 12:42:00,34.9,23.2,28.67,East,100,3.1,28.4,62,0.00,,SKC,0.35,VWS V14.01,2013-02-26 18:42:00,
2013-02-26 12:47:00,34.9,23.2,28.67,East,87,3.1,28.4,62,0.00,,SKC,0.35,VWS V14.01,2013-02-26 18:47:00,
2013-02-26 12:52:00,34.9,23.2,28.67,SE,128,3.6,28.4,62,0.00,,SKC,0.35,VWS V14.01,2013-02-26 18:52:00,
2013-02-26 12:57:00,34.9,23.6,28.67,East,100,4.0,28.4,63,0.00,,SKC,0.35,VWS V14.01,2013-02-26 18:57:00,
2013-02-26 13:02:00,34.9,23.6,28.67,East,96,5.8,28.4,63,0.00,,SKC,0.35,VWS V14.01,2013-02-26 19:02:00,
2013-02-26 13:07:00,34.9,23.6,28.67,ENE,75,5.4,28.4,63,0.00,,SKC,0.35,VWS V14.01,2013-02-26 19:07:00,
2013-02-26 13:12:00,34.9,23.6,28.67,SSE,152,3.1,28.4,63,0.00,,SKC,0.35,VWS V14.01,2013-02-26 19:12:00,
2013-02-26 13:17:00,34.9,23.6,28.67,East,100,6.3,28.4,63,0.00,,SKC,0.35,VWS V14.01,2013-02-26 19:17:00,
2013-02-26 13:22:00,34.9,23.6,28.67,ESE,107,5.8,28.4,63,0.00,,SKC,0.35,VWS V14.01,2013-02-26 19:22:00,
2013-02-26 13:27:00,34.9,24.0,28.64,East,96,4.0,28.4,64,0.00,,SKC,0.35,VWS V14.01,2013-02-26 19:27:00,
2013-02-26 13:32:00,34.9,24.0,28.64,ENE,77,5.4,28.4,64,0.00,,SKC,0.35,VWS V14.01,2013-02-26 19:32:00,
2013-02-26 13:37:00,34.9,24.0,28.64,ENE,63,3.1,28.4,64,0.00,,SKC,0.35,VWS V14.01,2013-02-26 19:37:00,
2013-02-26 13:42:00,34.9,24.0,28.64,East,96,2.7,28.4,64,0.00,,SKC,0.35,VWS V14.01,2013-02-26 19:42:00,
2013-02-26 13:47:00,34.9,24.0,28.64,ESE,103,3.1,28.4,64,0.00,,SKC,0.35,VWS V14.01,2013-02-26 19:47:00,
2013-02-26 13:52:00,34.9,24.0,28.64,East,82,2.7,28.4,64,0.00,,SKC,0.35,VWS V14.01,2013-02-26 19:52:00,
2013-02-26 13:57:00,34.9,24.3,28.64,East,96,3.6,28.4,65,0.00,,SKC,0.35,VWS V14.01,2013-02-26 19:57:00,
2013-02-26 14:02:00,34.9,24.3,28.64,SSE,151,5.8,28.4,65,0.00,,SKC,0.35,VWS V14.01,2013-02-26 20:02:00,
2013-02-26 14:07:00,35.1,24.5,28.64,East,96,4.0,28.4,65,0.00,,SKC,0.35,VWS V14.01,2013-02-26 20:07:00,
2013-02-26 14:12:00,35.1,24.5,28.64,East,96,5.4,28.4,65,0.00,,SKC,0.35,VWS V14.01,2013-02-26 20:12:00,
2013-02-26 14:17:00,34.9,24.3,28.64,SE,133,4.0,28.4,65,0.00,,SKC,0.35,VWS V14.01,2013-02-26 20:17:00,
2013-02-26 14:22:00,34.9,24.3,28.64,East,86,4.0,28.4,65,0.00,,SKC,0.35,VWS V14.01,2013-02-26 20:22:00,
2013-02-26 14:27:00,34.7,24.1,28.64,ENE,66,4.0,28.4,65,0.00,,SKC,0.35,VWS V14.01,2013-02-26 20:27:00,
2013-02-26 14:32:00,34.7,24.1,28.64,East,96,3.1,28.4,65,0.00,,SKC,0.35,VWS V14.01,2013-02-26 20:32:00,
2013-02-26 14:37:00,34.5,24.4,28.64,East,100,3.6,28.4,66,0.00,,SKC,0.35,VWS V14.01,2013-02-26 20:37:00,
2013-02-26 14:42:00,34.5,24.4,28.64,East,96,2.7,28.4,66,0.00,,SKC,0.35,VWS V14.01,2013-02-26 20:42:00,
2013-02-26 14:47:00,34.5,24.4,28.64,ESE,103,4.5,28.4,66,0.00,,SKC,0.35,VWS V14.01,2013-02-26 20:47:00,
2013-02-26 14:52:00,34.5,24.7,28.64,ESE,110,3.1,28.4,67,0.00,,SKC,0.35,VWS V14.01,2013-02-26 20:52:00,
2013-02-26 14:57:00,34.5,24.7,28.64,East,86,0.0,28.4,67,0.00,,SKC,0.35,VWS V14.01,2013-02-26 20:57:00,
2013-02-26 15:02:00,34.5,24.7,28.64,ENE,67,3.6,28.4,67,0.00,,SKC,0.35,VWS V14.01,2013-02-26 21:02:00,
2013-02-26 15:07:00,34.5,25.1,28.64,East,96,3.1,28.4,68,0.00,,SKC,0.35,VWS V14.01,2013-02-26 21:07:00,
2013-02-26 15:12:00,34.5,25.1,28.64,ESE,103,3.1,28.4,68,0.00,,SKC,0.35,VWS V14.01,2013-02-26 21:12:00,
2013-02-26 15:17:00,34.3,24.9,28.64,East,89,2.7,28.4,68,0.00,,SKC,0.35,VWS V14.01,2013-02-26 21:17:00,
2013-02-26 15:22:00,34.3,24.9,28.64,ESE,107,3.6,28.4,68,0.00,,SKC,0.35,VWS V14.01,2013-02-26 21:22:00,
2013-02-26 15:27:00,34.3,24.9,28.64,East,96,5.4,28.4,68,0.00,,SKC,0.35,VWS V14.01,2013-02-26 21:27:00,
2013-02-26 15:32:00,34.3,24.9,28.64,ESE,103,3.6,28.4,68,0.00,,SKC,0.35,VWS V14.01,2013-02-26 21:32:00,
2013-02-26 15:37:00,34.3,25.2,28.64,East,89,4.0,28.4,69,0.00,,SKC,0.35,VWS V14.01,2013-02-26 21:37:00,
2013-02-26 15:42:00,34.3,25.2,28.64,East,84,2.7,28.4,69,0.00,,SKC,0.35,VWS V14.01,2013-02-26 21:42:00,
2013-02-26 15:47:00,34.2,25.4,28.64,East,96,3.6,28.4,70,0.00,,SKC,0.35,VWS V14.01,2013-02-26 21:47:00,
2013-02-26 15:52:00,34.2,25.4,28.64,East,100,3.1,28.4,70,0.00,,SKC,0.35,VWS V14.01,2013-02-26 21:52:00,
2013-02-26 15:57:00,34.2,25.4,28.64,East,88,2.7,28.4,70,0.00,,SKC,0.35,VWS V14.01,2013-02-26 21:57:00,
2013-02-26 16:02:00,34.2,25.4,28.64,ESE,103,3.1,28.4,70,0.00,,SKC,0.35,VWS V14.01,2013-02-26 22:02:00,
2013-02-26 16:07:00,34.2,25.8,28.64,East,96,2.2,28.4,71,0.00,,SKC,0.35,VWS V14.01,2013-02-26 22:07:00,
2013-02-26 16:12:00,34.2,25.8,28.64,East,91,3.6,28.4,71,0.00,,SKC,0.35,VWS V14.01,2013-02-26 22:12:00,
2013-02-26 16:17:00,34.2,25.8,28.64,ESE,105,3.1,28.4,71,0.00,,SKC,0.35,VWS V14.01,2013-02-26 22:17:00,
2013-02-26 16:22:00,34.2,26.1,28.64,ENE,69,3.1,28.4,72,0.00,,SKC,0.35,VWS V14.01,2013-02-26 22:22:00,
2013-02-26 16:27:00,34.2,26.1,28.64,ENE,63,4.0,28.4,72,0.00,,SKC,0.35,VWS V14.01,2013-02-26 22:27:00,
2013-02-26 16:32:00,34.2,26.1,28.64,ESE,103,2.7,28.4,72,0.00,,SKC,0.35,VWS V14.01,2013-02-26 22:32:00,
2013-02-26 16:37:00,34.2,26.1,28.64,ENE,61,2.7,28.4,72,0.00,,SKC,0.35,VWS V14.01,2013-02-26 22:37:00,
2013-02-26 16:42:00,34.2,26.4,28.64,ENE,67,3.1,28.4,73,0.00,,SKC,0.35,VWS V14.01,2013-02-26 22:42:00,
2013-02-26 16:47:00,34.2,26.4,28.64,East,96,3.1,28.4,73,0.00,,SKC,0.35,VWS V14.01,2013-02-26 22:47:00,
2013-02-26 16:52:00,34.2,26.8,28.64,East,86,3.6,28.4,74,0.00,,SKC,0.35,VWS V14.01,2013-02-26 22:52:00,
2013-02-26 16:57:00,34.2,26.8,28.64,East,100,2.7,28.4,74,0.00,,SKC,0.35,VWS V14.01,2013-02-26 22:57:00,
2013-02-26 17:02:00,34.0,26.6,28.64,East,88,3.6,28.4,74,0.00,,SKC,0.35,VWS V14.01,2013-02-26 23:02:00,
2013-02-26 17:07:00,34.2,26.8,28.64,East,83,3.1,28.4,74,0.00,,SKC,0.35,VWS V14.01,2013-02-26 23:07:00,
2013-02-26 17:12:00,34.0,26.6,28.64,ESE,103,2.7,28.4,74,0.00,,SKC,0.35,VWS V14.01,2013-02-26 23:12:00,
2013-02-26 17:17:00,34.2,27.1,28.64,ESE,103,3.6,28.4,75,0.00,,SKC,0.35,VWS V14.01,2013-02-26 23:17:00,
2013-02-26 17:22:00,34.2,27.1,28.64,ENE,71,4.9,28.4,75,0.00,,SKC,0.35,VWS V14.01,2013-02-26 23:22:00,
2013-02-26 17:27:00,34.2,27.1,28.64,ENE,71,3.1,28.4,75,0.00,,SKC,0.35,VWS V14.01,2013-02-26 23:27:00,
2013-02-26 17:32:00,34.2,27.1,28.64,East,82,2.7,28.4,75,0.00,,SKC,0.35,VWS V14.01,2013-02-26 23:32:00,
2013-02-26 17:37:00,34.0,26.9,28.64,ESE,105,2.2,28.4,75,0.00,,SKC,0.35,VWS V14.01,2013-02-26 23:37:00,
2013-02-26 17:42:00,34.0,26.9,28.64,ENE,74,2.7,28.4,75,0.00,,SKC,0.35,VWS V14.01,2013-02-26 23:42:00,
2013-02-26 17:47:00,34.0,27.2,28.64,East,88,2.2,28.4,76,0.00,,SKC,0.35,VWS V14.01,2013-02-26 23:47:00,
2013-02-26 17:52:00,34.0,27.2,28.64,ESE,104,2.7,28.4,76,0.00,,SKC,0.35,VWS V14.01,2013-02-26 23:52:00,
2013-02-26 17:57:00,34.0,27.2,28.64,ENE,73,2.7,28.4,76,0.00,,SKC,0.35,VWS V14.01,2013-02-26 23:57:00,
2013-02-26 18:02:00,34.0,27.2,28.64,East,88,3.1,28.4,76,0.00,,SKC,0.35,VWS V14.01,2013-02-27 00:02:00,
2013-02-26 18:07:00,34.0,27.2,28.64,East,88,3.6,28.4,76,0.00,,SKC,0.35,VWS V14.01,2013-02-27 00:07:00,
2013-02-26 18:12:00,34.0,27.2,28.64,ESE,103,2.2,28.4,76,0.00,,SKC,0.35,VWS V14.01,2013-02-27 00:12:00,
2013-02-26 18:17:00,34.0,27.2,28.64,East,86,3.1,28.4,76,0.00,,SKC,0.35,VWS V14.01,2013-02-27 00:17:00,
2013-02-26 18:22:00,34.0,27.5,28.64,ENE,74,2.7,28.4,77,0.00,,SKC,0.35,VWS V14.01,2013-02-27 00:22:00,
2013-02-26 18:27:00,34.0,27.5,28.64,East,100,2.7,28.4,77,0.00,,SKC,0.35,VWS V14.01,2013-02-27 00:27:00,
2013-02-26 18:32:00,34.0,27.5,28.64,ENE,58,3.1,28.4,77,0.00,,SKC,0.35,VWS V14.01,2013-02-27 00:32:00,
2013-02-26 18:37:00,34.2,27.7,28.64,East,80,3.1,28.4,77,0.00,,SKC,0.35,VWS V14.01,2013-02-27 00:37:00,
2013-02-26 18:42:00,34.2,27.7,28.64,ESE,103,3.6,28.4,77,0.00,,SKC,0.35,VWS V14.01,2013-02-27 00:42:00,
2013-02-26 18:47:00,34.2,27.7,28.64,ENE,68,3.1,28.4,77,0.00,,SKC,0.35,VWS V14.01,2013-02-27 00:47:00,
2013-02-26 18:52:00,34.0,27.5,28.64,ESE,103,3.6,28.4,77,0.00,,SKC,0.35,VWS V14.01,2013-02-27 00:52:00,
2013-02-26 18:57:00,34.0,27.5,28.64,ESE,108,2.7,28.4,77,0.00,,SKC,0.35,VWS V14.01,2013-02-27 00:57:00,
2013-02-26 19:02:00,34.0,27.5,28.64,East,81,3.6,28.4,77,0.00,,SKC,0.35,VWS V14.01,2013-02-27 01:02:00,
2013-02-26 19:07:00,34.0,27.5,28.64,East,84,4.5,28.4,77,0.00,,SKC,0.35,VWS V14.01,2013-02-27 01:07:00,
2013-02-26 19:12:00,34.0,27.5,28.64,East,91,3.6,28.4,77,0.00,,SKC,0.35,VWS V14.01,2013-02-27 01:12:00,
2013-02-26 19:17:00,34.0,27.9,28.64,ENE,60,3.6,28.4,78,0.00,,SKC,0.35,VWS V14.01,2013-02-27 01:17:00,
2013-02-26 19:22:00,34.0,27.9,28.64,East,86,2.7,28.4,78,0.00,,SKC,0.35,VWS V14.01,2013-02-27 01:22:00,
2013-02-26 19:27:00,34.2,28.0,28.64,East,96,2.7,28.4,78,0.00,,SKC,0.35,VWS V14.01,2013-02-27 01:27:00,
2013-02-26 19:32:00,34.2,28.0,28.64,ESE,103,3.1,28.4,78,0.00,,SKC,0.35,VWS V14.01,2013-02-27 01:32:00,
2013-02-26 19:37:00,34.0,27.9,28.64,East,80,3.6,28.4,78,0.00,,SKC,0.35,VWS V14.01,2013-02-27 01:37:00,
2013-02-26 19:42:00,34.0,27.9,28.64,East,100,4.9,28.4,78,0.00,,SKC,0.35,VWS V14.01,2013-02-27 01:42:00,
2013-02-26 19:47:00,34.0,27.9,28.64,ENE,62,2.7,28.4,78,0.00,,SKC,0.35,VWS V14.01,2013-02-27 01:47:00,
2013-02-26 19:52:00,34.0,27.9,28.64,NE,50,4.0,28.4,78,0.00,,SKC,0.35,VWS V14.01,2013-02-27 01:52:00,
2013-02-26 19:57:00,34.0,27.9,28.64,ENE,64,2.2,28.4,78,0.00,,SKC,0.35,VWS V14.01,2013-02-27 01:57:00,
2013-02-26 20:02:00,34.0,27.9,28.64,NE,44,4.5,28.4,78,0.00,,SKC,0.35,VWS V14.01,2013-02-27 02:02:00,
2013-02-26 20:07:00,34.0,27.9,28.64,NE,54,2.7,28.4,78,0.00,,SKC,0.35,VWS V14.01,2013-02-27 02:07:00,
2013-02-26 20:12:00,34.0,27.9,28.64,ENE,70,4.9,28.4,78,0.00,,SKC,0.35,VWS V14.01,2013-02-27 02:12:00,
2013-02-26 20:17:00,34.0,27.9,28.64,East,84,5.8,28.4,78,0.00,,SKC,0.35,VWS V14.01,2013-02-27 02:17:00,
2013-02-26 20:22:00,34.0,27.9,28.64,ENE,73,6.3,28.4,78,0.00,,SKC,0.35,VWS V14.01,2013-02-27 02:22:00,
2013-02-26 20:27:00,34.2,28.0,28.64,ENE,64,6.3,28.4,78,0.00,,SKC,0.35,VWS V14.01,2013-02-27 02:27:00,
2013-02-26 20:32:00,34.2,28.0,28.64,ENE,70,5.8,28.4,78,0.00,,SKC,0.35,VWS V14.01,2013-02-27 02:32:00,
2013-02-26 20:37:00,34.2,28.3,28.64,ENE,69,5.4,28.4,79,0.00,,SKC,0.35,VWS V14.01,2013-02-27 02:37:00,
2013-02-26 20:42:00,34.2,28.3,28.64,ENE,65,4.9,28.4,79,0.00,,SKC,0.35,VWS V14.01,2013-02-27 02:42:00,
2013-02-26 20:47:00,34.2,28.3,28.64,ENE,63,5.4,28.4,79,0.00,,SKC,0.35,VWS V14.01,2013-02-27 02:47:00,
2013-02-26 20:52:00,34.2,28.3,28.64,ENE,78,6.3,28.4,79,0.00,,SKC,0.35,VWS V14.01,2013-02-27 02:52:00,
2013-02-26 20:57:00,34.2,28.3,28.64,ENE,73,6.3,28.4,79,0.00,,SKC,0.35,VWS V14.01,2013-02-27 02:57:00,
2013-02-26 21:02:00,34.2,28.3,28.64,ENE,65,4.9,28.4,79,0.00,,SKC,0.35,VWS V14.01,2013-02-27 03:02:00,
2013-02-26 21:07:00,34.2,28.3,28.64,NE,55,5.4,28.4,79,0.00,,SKC,0.35,VWS V14.01,2013-02-27 03:07:00,
2013-02-26 21:12:00,34.2,28.3,28.64,ENE,68,5.8,28.4,79,0.00,,SKC,0.35,VWS V14.01,2013-02-27 03:12:00,
2013-02-26 21:17:00,34.0,28.2,28.64,ENE,72,5.8,28.4,79,0.00,,SKC,0.35,VWS V14.01,2013-02-27 03:17:00,
2013-02-26 21:22:00,34.0,28.2,28.64,ENE,63,3.1,28.4,79,0.00,,SKC,0.35,VWS V14.01,2013-02-27 03:22:00,
2013-02-26 21:27:00,34.0,28.2,28.61,ENE,69,4.9,28.4,79,0.00,,SKC,0.35,VWS V14.01,2013-02-27 03:27:00,
2013-02-26 21:32:00,34.0,28.2,28.61,ENE,68,5.4,28.4,79,0.00,,SKC,0.00,VWS V14.01,2013-02-27 03:32:00,
2013-02-26 21:37:00,34.0,28.2,28.61,East,79,4.0,28.4,79,0.00,,SKC,0.31,VWS V14.01,2013-02-27 03:37:00,
2013-02-26 21:42:00,34.0,28.2,28.64,ENE,71,5.8,28.4,79,0.00,,SKC,0.31,VWS V14.01,2013-02-27 03:42:00,
2013-02-26 21:47:00,34.0,28.2,28.64,ENE,65,4.5,28.4,79,0.00,,SKC,0.31,VWS V14.01,2013-02-27 03:47:00,
2013-02-26 21:52:00,34.0,28.2,28.64,ENE,69,5.4,28.4,79,0.00,,SKC,0.31,VWS V14.01,2013-02-27 03:52:00,
2013-02-26 21:58:00,34.0,28.2,28.61,ENE,70,4.9,28.4,79,0.00,,SKC,0.31,VWS V14.01,2013-02-27 03:58:00,
2013-02-26 22:03:00,34.0,28.2,28.61,ENE,68,6.3,28.4,79,0.00,,SKC,0.31,VWS V14.01,2013-02-27 04:03:00,
2013-02-26 22:08:00,34.0,28.2,28.61,ENE,70,5.4,28.4,79,0.00,,SKC,0.31,VWS V14.01,2013-02-27 04:08:00,
2013-02-26 22:13:00,34.0,28.2,28.64,ENE,67,5.8,28.4,79,0.00,,SKC,0.31,VWS V14.01,2013-02-27 04:13:00,
2013-02-26 22:18:00,34.0,28.5,28.64,ENE,68,4.0,28.4,80,0.00,,SKC,0.31,VWS V14.01,2013-02-27 04:18:00,
2013-02-26 22:23:00,34.0,28.5,28.64,ENE,66,5.4,28.4,80,0.00,,SKC,0.31,VWS V14.01,2013-02-27 04:23:00,
2013-02-26 22:28:00,34.0,28.5,28.61,ENE,64,5.4,28.4,80,0.00,,SKC,0.31,VWS V14.01,2013-02-27 04:28:00,
2013-02-26 22:33:00,34.0,28.5,28.61,ENE,70,6.3,28.4,80,0.00,,SKC,0.31,VWS V14.01,2013-02-27 04:33:00,
2013-02-26 22:38:00,34.0,28.5,28.61,ENE,70,5.8,28.4,80,0.00,,SKC,0.31,VWS V14.01,2013-02-27 04:38:00,
2013-02-26 22:43:00,34.2,28.6,28.64,ENE,66,5.8,28.4,80,0.00,,SKC,0.31,VWS V14.01,2013-02-27 04:43:00,
2013-02-26 22:48:00,34.2,28.6,28.64,ENE,69,6.3,28.4,80,0.00,,SKC,0.31,VWS V14.01,2013-02-27 04:48:00,
2013-02-26 22:53:00,34.2,28.6,28.64,ENE,72,5.8,28.4,80,0.00,,SKC,0.31,VWS V14.01,2013-02-27 04:53:00,
2013-02-26 22:58:00,34.2,28.6,28.64,ENE,61,3.6,28.4,80,0.00,,SKC,0.31,VWS V14.01,2013-02-27 04:58:00,
2013-02-26 23:04:00,34.0,28.5,28.64,ENE,67,5.4,28.4,80,0.00,,SKC,0.31,VWS V14.01,2013-02-27 05:04:00,
2013-02-26 23:09:00,34.2,28.6,28.64,ENE,71,4.0,28.4,80,0.00,,SKC,0.31,VWS V14.01,2013-02-27 05:09:00,
2013-02-26 23:14:00,34.2,28.6,28.61,ENE,72,5.8,28.4,80,0.00,,SKC,0.31,VWS V14.01,2013-02-27 05:14:00,
2013-02-26 23:19:00,34.2,28.6,28.61,ENE,67,5.8,28.4,80,0.00,,SKC,0.31,VWS V14.01,2013-02-27 05:19:00,
2013-02-26 23:24:00,34.2,28.6,28.61,ENE,65,5.4,28.4,80,0.00,,SKC,0.31,VWS V14.01,2013-02-27 05:24:00,
2013-02-26 23:29:00,34.2,28.6,28.61,ENE,70,4.0,28.4,80,0.00,,SKC,0.31,VWS V14.01,2013-02-27 05:29:00,
2013-02-26 23:34:00,34.2,28.6,28.61,ENE,68,4.0,28.4,80,0.00,,SKC,0.31,VWS V14.01,2013-02-27 05:34:00,
2013-02-26 23:39:00,34.2,28.6,28.61,ENE,72,3.6,28.4,80,0.00,,SKC,0.31,VWS V14.01,2013-02-27 05:39:00,
2013-02-26 23:44:00,34.2,28.6,28.61,ENE,68,5.8,28.4,80,0.00,,SKC,0.31,VWS V14.01,2013-02-27 05:44:00,
2013-02-26 23:49:00,34.2,28.6,28.61,ENE,67,4.9,28.4,80,0.00,,SKC,0.31,VWS V14.01,2013-02-27 05:49:00,
2013-02-26 23:54:00,34.2,28.6,28.61,ENE,73,5.8,28.4,80,0.00,,SKC,0.31,VWS V14.01,2013-02-27 05:54:00,
2013-02-26 23:59:00,34.2,28.6,28.61,NE,41,4.9,28.4,80,0.00,,SKC,0.31,VWS V14.01,2013-02-27 05:59:00,